[[{"header":{"parameterUnit":"m.s-1","parameterCategory":1,"la1":30.2991,"la2":30.254,"lo1":-89.0895,"lo2":-89.0444,"dy":0.0017,"dx":0.0017,"nx":28,"ny":28,"refTime":"2023-10-15T03:00:00:Z","depth":0,"parameterNumber":2,"parameterNumberName":"U-component_of_WINDS"},"data":[0,0,0,0,0,0,0,0,0,0,0,0,0,0,0,0,0,0,0,0,0,0,0,0,0,0,0,0,0,0,0,0,0,0,0,0,0,0,0,0,0,0,0,0,0,0,0,0,0,0,0,0,0,0,0,0,0,0,1.9559,1.9559,0,1.9539,1.9539,1.9538,1.9485,1.9484,1.9483,1.9482,1.946,1.9461,1.9461,0,0,0,0,0,0,0,0,0,0,0,0,0,1.9553,1.9553,1.9559,1.9559,1.9559,1.9539,1.9539,1.9538,1.9485,1.9484,1.9483,1.9481,1.946,1.9461,1.9461,0,0,0,0,0,0,0,0,0,0,0,0,0,1.9546,1.9553,1.9559,1.953,1.9527,1.9539,1.9539,1.9538,1.9486,1.9484,1.9482,1.9481,1.946,1.9461,1.9461,1.95,0,0,1.9464,1.9464,0,0,0,0,0,0,0,0,1.9547,1.9547,1.9534,1.9532,1.9529,1.9513,1.9528,1.9525,1.9486,1.9501,1.9482,1.948,1.9479,1.9478,1.9478,1.9499,1.9498,1.9464,1.9464,1.9464,1.9465,0,0,0,0,0,0,0,1.9547,1.9547,1.9551,1.9534,1.9531,1.9518,1.9515,1.9528,1.95,1.95,1.9496,1.9494,1.9477,1.9478,1.9477,1.9498,1.9464,1.9464,1.9465,1.9465,1.955,1.9552,0,0,0,0,0,0,1.9552,1.9548,1.9552,1.955,1.9534,1.9519,1.9516,1.952,1.95,1.9495,1.9496,1.9492,1.9477,1.9476,1.9476,1.952,1.9464,1.9465,1.9466,1.9548,1.9551,1.9553,0,0,0,0,0,0,1.9552,1.9553,1.9553,1.9548,1.9547,1.9521,1.9526,1.952,1.952,1.9497,1.9491,1.9501,1.9476,1.9475,1.9495,1.9519,1.9465,1.9466,1.9546,1.9549,1.9552,1.9609,0,0,0,0,0,0,1.9552,1.9553,1.9567,1.9549,1.9548,1.9571,1.9527,1.9521,1.9522,1.9517,1.95,1.9496,1.9474,1.9494,1.9495,1.9519,1.9467,1.9544,1.9547,1.9551,1.9604,1.9613,1.962,0,0,0,0,0,1.9552,1.9584,1.9568,1.9569,1.9565,1.9573,1.9572,1.9547,1.9524,1.9538,1.9523,1.9496,1.9516,1.9496,1.9498,1.9522,1.9542,1.9546,1.955,1.9601,1.9611,1.962,0,0,0,0,0,0,1.9605,1.9581,1.9563,1.959,1.9584,1.9564,1.958,1.9558,1.9559,1.9554,1.9522,1.9519,1.9543,1.9534,1.9513,1.9558,1.9525,1.953,1.9563,1.9573,1.958,1.9582,1.9467,0,0,0,0,0,1.9619,1.9628,1.9607,1.9632,1.963,1.9606,1.9609,1.959,1.9583,1.958,1.9566,1.956,1.9565,1.9568,1.9571,1.9603,1.9599,1.9621,1.9629,1.9635,1.9639,1.9656,1.9666,1.9566,1.9566,1.9566,0,0,1.965,1.9638,1.9645,1.9643,1.9636,1.9646,1.9604,1.9616,1.9623,1.9581,1.9599,1.9589,1.958,1.9606,1.9617,1.96,1.9666,1.9641,1.9646,1.9646,1.9662,1.9671,1.968,1.9569,1.9568,1.9568,0,0,1.971,1.9702,1.9723,1.9717,1.9708,1.9692,1.9697,1.9681,1.9673,1.969,1.966,1.9668,1.9677,1.9672,1.967,1.9731,1.9707,1.9733,1.9774,1.9791,1.9799,1.9806,1.9828,1.9836,1.9738,1.9738,1.9738,0,1.9749,1.9762,1.9736,1.975,1.9751,1.9714,1.9735,1.9731,1.9723,1.9724,1.9705,1.9717,1.9708,1.9733,1.9748,1.9748,1.9753,1.9734,1.98,1.9807,1.9813,1.9833,1.9842,1.9741,1.9741,1.974,1.974,0,1.9811,1.9821,1.9839,1.9833,1.9835,1.9853,1.983,1.9835,1.9817,1.9804,1.9823,1.9811,1.9812,1.9817,1.9799,1.984,1.9829,1.9806,1.9771,1.9826,1.9845,1.9852,1.9746,1.9745,1.9744,1.9743,0,0,1.9902,1.9883,1.989,1.9887,1.9875,1.9882,1.9899,1.99,1.9906,1.9902,1.9915,1.9925,1.9904,1.9902,1.9884,1.9899,1.9948,1.9873,1.9873,1.9888,1.9993,2.0011,2.002,1.9933,1.9934,1.9935,1.9994,0,1.9958,1.9985,1.9963,1.9995,2.0004,1.9971,1.9985,1.998,1.9968,1.9975,1.9962,1.9969,1.994,1.9939,1.9953,1.994,1.9969,1.9935,1.9945,1.9945,1.9947,2.003,2.0048,2.0104,2.0001,2.0002,2.0003,0,2.0028,2.0028,2.0061,2.0048,2.0051,2.0065,2.0065,2.0071,2.0065,2.0055,2.0055,2.0033,2.0049,2.0016,2.0038,2.0015,2.0018,2.0013,2.0014,2.0013,1.9977,2.0031,2.0121,2.0129,2.0015,2.0014,2.0013,0,2.0091,2.01,2.012,2.0119,2.0105,2.0115,2.011,2.0102,2.0104,2.0105,2.0106,2.0108,2.0109,2.0112,2.0091,2.0069,2.0115,2.0081,2.0108,2.0109,2.0118,2.0118,2.0209,2.0121,2.0121,2.0121,2.0121,0,2.0156,2.0177,2.0149,2.0161,2.0184,2.0159,2.0183,2.0174,2.0168,2.0178,2.015,2.0161,2.0133,2.0141,2.0125,2.0146,2.0146,2.0139,2.0134,2.0141,2.0142,2.0142,2.0137,2.0123,2.0123,2.0122,2.0122,0,2.0229,2.0211,2.0232,2.0217,2.0214,2.0232,2.0219,2.0231,2.0218,2.0232,2.0234,2.0214,2.0222,2.0202,2.0207,2.0196,2.0226,2.0215,2.0228,2.0225,2.0253,2.025,2.0347,2.0358,2.0264,2.0265,2.0266,0,2.0272,2.0287,2.0275,2.0281,2.0277,2.0286,2.0289,2.0265,2.027,2.0265,2.0277,2.0283,2.0286,2.0301,2.0287,2.0291,2.028,2.0313,2.028,2.0287,2.028,2.0279,2.028,2.032,2.0321,2.0322,2.0323,0,2.0349,2.034,2.0345,2.0348,2.0353,2.0354,2.0353,2.0359,2.0334,2.034,2.0349,2.0352,2.0357,2.0364,2.0365,2.0359,2.0337,2.0334,2.034,2.0347,2.0353,2.035,2.0246,2.0331,2.033,2.033,2.0329,2.0329,2.0408,2.0421,2.0415,2.0422,2.0419,2.0419,2.043,2.0419,2.0426,2.0429,2.0415,2.0426,2.0421,2.042,2.0417,2.0426,2.0411,2.042,2.0422,2.0425,2.043,2.0353,2.0426,2.0426,2.0426,2.0426,2.0425,0,2.0484,2.0478,2.0486,2.0486,2.0492,2.0472,2.047,2.0476,2.0487,2.0484,2.0489,2.0499,2.0505,2.0493,2.0497,2.0507,2.0497,2.0509,2.0507,2.0507,2.0443,2.0437,2.0517,2.0517,2.0517,2.0517,2.0517,2.0517,2.0523,2.0544,2.0535,2.0554,2.0549,2.056,2.0561,2.0562,2.0559,2.0572,2.0578,2.057,2.0563,2.0567,2.0573,2.0569,2.0571,2.0587,2.058,2.052,2.0511,2.0503,2.0497,2.0588,2.0588,2.0642,2.0643,2.0643]},{"header":{"parameterUnit":"m.s-1","parameterCategory":1,"la1":30.2991,"la2":30.254,"lo1":-89.0895,"lo2":-89.0444,"dy":0.0017,"dx":0.0017,"nx":28,"ny":28,"refTime":"2023-10-15T03:00:00:Z","depth":0,"parameterNumber":3,"parameterNumberName":"V-component_of_WINDS"},"data":[0,0,0,0,0,0,0,0,0,0,0,0,0,0,0,0,0,0,0,0,0,0,0,0,0,0,0,0,0,0,0,0,0,0,0,0,0,0,0,0,0,0,0,0,0,0,0,0,0,0,0,0,0,0,0,0,0,0,-6.395,-6.3951,0,-6.4118,-6.412,-6.4122,-6.4055,-6.4051,-6.4047,-6.4044,-6.421,-6.4218,-6.4226,0,0,0,0,0,0,0,0,0,0,0,0,0,-6.3565,-6.3573,-6.3949,-6.3952,-6.3954,-6.4118,-6.412,-6.4122,-6.4056,-6.4051,-6.4046,-6.4042,-6.4208,-6.4217,-6.4227,0,0,0,0,0,0,0,0,0,0,0,0,0,-6.3733,-6.3575,-6.3949,-6.3941,-6.3941,-6.4117,-6.412,-6.4123,-6.4057,-6.4051,-6.4045,-6.404,-6.4205,-6.4216,-6.4228,-6.4421,0,0,-6.4265,-6.4271,0,0,0,0,0,0,0,0,-6.3723,-6.3747,-6.394,-6.3941,-6.3943,-6.406,-6.4045,-6.4222,-6.4058,-6.4013,-6.4044,-6.4037,-6.4165,-6.418,-6.4224,-6.4428,-6.4436,-6.4266,-6.4274,-6.4279,-6.4282,0,0,0,0,0,0,0,-6.3712,-6.3739,-6.4016,-6.3943,-6.3945,-6.3926,-6.3944,-6.4079,-6.4119,-6.4016,-6.4012,-6.4033,-6.4164,-6.4212,-6.4227,-6.4438,-6.4266,-6.4277,-6.4284,-6.4289,-6.4808,-6.4814,0,0,0,0,0,0,-6.37,-6.373,-6.4011,-6.4021,-6.3816,-6.3938,-6.3958,-6.4028,-6.4118,-6.4126,-6.4038,-6.4029,-6.4195,-6.4213,-6.4233,-6.4463,-6.4279,-6.429,-6.4297,-6.4801,-6.4809,-6.4816,0,0,0,0,0,0,-6.3692,-6.3726,-6.4004,-6.3874,-6.3908,-6.3951,-6.4031,-6.4034,-6.4083,-6.4134,-6.4141,-6.408,-6.4191,-6.4216,-6.4375,-6.4468,-6.4296,-6.4307,-6.4794,-6.4804,-6.4813,-6.4926,0,0,0,0,0,0,-6.3682,-6.3724,-6.3798,-6.3877,-6.3916,-6.4145,-6.4037,-6.4042,-6.4104,-6.4095,-6.4175,-6.4183,-6.4188,-6.4357,-6.4387,-6.4482,-6.4316,-6.4785,-6.4798,-6.4809,-6.4914,-6.4939,-6.496,0,0,0,0,0,-6.3668,-6.3823,-6.3803,-6.3837,-6.401,-6.415,-6.4172,-6.4177,-6.4112,-6.4187,-6.422,-6.418,-6.4454,-6.4374,-6.4407,-6.4507,-6.4779,-6.4794,-6.4809,-6.4904,-6.4934,-6.4959,0,0,0,0,0,0,-6.3752,-6.3833,-6.3811,-6.3996,-6.4067,-6.4139,-6.4233,-6.4208,-6.4297,-6.4284,-6.4284,-6.4303,-6.4467,-6.4502,-6.4412,-6.4697,-6.4606,-6.4628,-6.4668,-6.4697,-6.4719,-6.4706,-6.4326,0,0,0,0,0,-6.3793,-6.3902,-6.3965,-6.4122,-6.4159,-6.419,-6.4251,-6.4249,-6.4321,-6.435,-6.4395,-6.4466,-6.4567,-6.4634,-6.473,-6.492,-6.4935,-6.5005,-6.5027,-6.5046,-6.5064,-6.5166,-6.5197,-6.4864,-6.4864,-6.4864,0,0,-6.3877,-6.3934,-6.4002,-6.414,-6.4195,-6.4306,-6.4216,-6.4337,-6.4419,-6.4368,-6.4521,-6.4557,-6.4635,-6.481,-6.4889,-6.4845,-6.516,-6.5064,-6.5079,-6.5087,-6.5184,-6.5216,-6.5244,-6.4874,-6.4872,-6.4871,0,0,-6.4086,-6.4141,-6.4278,-6.4335,-6.442,-6.4439,-6.4472,-6.4549,-6.4571,-6.4725,-6.4689,-6.4785,-6.496,-6.5018,-6.507,-6.5302,-6.5268,-6.5333,-6.5451,-6.555,-6.5576,-6.5599,-6.5681,-6.5711,-6.5351,-6.5352,-6.5352,0,-6.4179,-6.4347,-6.4351,-6.4476,-6.4536,-6.4498,-6.4635,-6.469,-6.4801,-6.4843,-6.4792,-6.5012,-6.5062,-6.5249,-6.5306,-6.535,-6.5386,-6.5323,-6.5573,-6.5596,-6.5618,-6.5695,-6.5726,-6.5359,-6.5358,-6.5357,-6.5357,0,-6.4457,-6.4573,-6.4673,-6.4784,-6.4856,-6.4986,-6.5008,-6.5081,-6.5072,-6.5096,-6.5253,-6.5312,-6.542,-6.5464,-6.5456,-6.565,-6.562,-6.5572,-6.548,-6.5657,-6.573,-6.576,-6.5369,-6.5367,-6.5365,-6.5363,0,0,-6.4723,-6.4835,-6.4871,-6.4921,-6.5012,-6.5101,-6.5229,-6.5336,-6.5397,-6.5475,-6.5581,-6.5731,-6.5687,-6.5746,-6.5744,-6.5831,-6.601,-6.5771,-6.5773,-6.5813,-6.6227,-6.6262,-6.6297,-6.5989,-6.5995,-6.5999,-6.622,0,-6.4939,-6.5166,-6.5173,-6.5379,-6.5486,-6.5451,-6.5562,-6.5629,-6.5656,-6.5749,-6.5777,-6.5883,-6.5817,-6.5853,-6.5938,-6.597,-6.6093,-6.5954,-6.6086,-6.609,-6.6067,-6.6335,-6.6374,-6.6579,-6.6249,-6.6254,-6.6257,0,-6.5221,-6.531,-6.5528,-6.5603,-6.5648,-6.5749,-6.5847,-6.5937,-6.6011,-6.6024,-6.6091,-6.6076,-6.6205,-6.611,-6.6287,-6.6193,-6.6247,-6.6271,-6.6279,-6.629,-6.6184,-6.6353,-6.6645,-6.6675,-6.6302,-6.6299,-6.6295,0,-6.5393,-6.5567,-6.5719,-6.5763,-6.5855,-6.5926,-6.5967,-6.6036,-6.61,-6.6185,-6.6226,-6.6325,-6.6379,-6.6455,-6.6466,-6.6396,-6.6643,-6.6549,-6.6656,-6.6656,-6.6709,-6.6705,-6.7012,-6.6746,-6.6745,-6.6744,-6.6744,0,-6.5633,-6.5767,-6.5798,-6.5892,-6.604,-6.6047,-6.6193,-6.6229,-6.629,-6.6389,-6.6364,-6.6457,-6.6467,-6.6562,-6.6572,-6.6716,-6.674,-6.6753,-6.6754,-6.6755,-6.6753,-6.679,-6.6775,-6.6753,-6.6751,-6.6749,-6.6748,0,-6.5849,-6.5876,-6.6039,-6.6114,-6.6135,-6.6242,-6.6304,-6.6393,-6.6417,-6.6542,-6.6572,-6.6609,-6.672,-6.674,-6.6869,-6.6876,-6.7048,-6.7034,-6.7023,-6.7021,-6.7127,-6.7116,-6.7467,-6.7513,-6.7217,-6.722,-6.7222,0,-6.6,-6.6103,-6.6189,-6.6254,-6.6299,-6.6405,-6.647,-6.648,-6.6549,-6.6641,-6.6719,-6.6827,-6.6915,-6.7093,-6.7131,-6.723,-6.7218,-6.7334,-6.7232,-6.723,-6.7218,-6.7212,-6.7222,-6.7353,-6.7356,-6.7359,-6.7361,0,-6.6265,-6.6273,-6.637,-6.6471,-6.655,-6.663,-6.6705,-6.676,-6.6779,-6.6857,-6.6972,-6.704,-6.7173,-6.7281,-6.7379,-6.7419,-6.7394,-6.7393,-6.7423,-6.7424,-6.7414,-6.742,-6.7076,-6.7384,-6.7382,-6.738,-6.7379,-6.7378,-6.6453,-6.6543,-6.6617,-6.6725,-6.6783,-6.6854,-6.6941,-6.6977,-6.7073,-6.7184,-6.7183,-6.7308,-6.7379,-6.7509,-6.7556,-6.7652,-6.7615,-6.7658,-6.7669,-6.7679,-6.7689,-6.7399,-6.767,-6.767,-6.7669,-6.7668,-6.7668,0,-6.6716,-6.6762,-6.6862,-6.6969,-6.7054,-6.7024,-6.7106,-6.7178,-6.7289,-6.7358,-6.7445,-6.7576,-6.768,-6.7726,-6.7829,-6.7897,-6.7887,-6.7923,-6.7918,-6.7927,-6.7717,-6.7681,-6.7929,-6.7929,-6.7929,-6.7929,-6.7929,-6.7929,-6.6863,-6.7012,-6.7029,-6.7207,-6.7252,-6.7375,-6.7425,-6.7489,-6.7545,-6.7693,-6.778,-6.781,-6.787,-6.7976,-6.807,-6.8081,-6.8119,-6.8161,-6.8166,-6.7968,-6.7942,-6.7917,-6.7883,-6.8169,-6.8169,-6.8368,-6.8369,-6.8371]}]]